Change the Weather History Date:

Monday, November 28, 2011

  Actual Average (KMCE) Record (KMCE)
Temperature  
Mean Temperature 45 °F 48 °F  
Max Temperature 51 °F 58 °F 72 °F (2014)
Min Temperature 39 °F 38 °F 30 °F (2005)
Degree Days  
Heating Degree Days 20    
Month to date heating degree days  
Since 1 July heating degree days  
Cooling Degree Days 0    
Month to date cooling degree days  
Year to date cooling degree days  
Moisture  
Dew Point 46 °F    
Average Humidity 100    
Maximum Humidity 100    
Minimum Humidity 100    
Precipitation  
Precipitation 0.00 in 0.03 in 0.18 in (2012)
Month to date precipitation 1.11  
Year to date precipitation 10.91  
Since 1 July precipitation 2.23  
Snow  
Snow 0.00 in - - ()
Month to date snowfall  
Since 1 July snowfall  
Since 1 September snowfall  
Snow Depth -    
Sea Level Pressure  
Sea Level Pressure 30.27 in    
Wind  
Wind Speed 3 mph (NE)    
Max Wind Speed 7 mph    
Max Gust Speed -    
Visibility 1 miles    
Events Fog    
T = Trace of Precipitation, MM = Missing Value Source: NWS Daily Summary

Daily Weather History Graph

Daily Weather History Graph

Search for Another Location

Airport or City:

Trip Planner

Search our weather history database for the weather conditions in past years. The results will help you decide how hot, cold, wet, or windy it might be!

Date:

Astronomy

Nov. 28, 2011 Rise Set
Actual Time 6:54 AM PST 4:45 PM PST
Civil Twilight 6:26 AM PST 5:13 PM PST
Nautical Twilight 5:54 AM PST 5:46 PM PST
Astronomical Twilight 5:22 AM PST 6:17 PM PST
Moon 10:08 AM PST (11/28) 8:36 PM PST (11/28)
Length of Visible Light 10h 47m
Length of Day
9h 50m
Waxing Crescent, 16% of the Moon is Illuminated
Nov 28
Waxing Crescent
Dec 2
First Quarter
Dec 10
Full
Dec 17
Last Quarter
Dec 24
New

Hourly Weather History & Observations

Time (PST) Temp. Windchill Dew Point Humidity Pressure Visibility Wind Dir Wind Speed Gust Speed Precip Events Conditions
12:15 AM 46.4 °F 45.2 °F 46.4 °F 100% 30.30 in 0.2 mi NNW 3.5 mph - N/A   Overcast
12:35 AM 48.2 °F - 48.2 °F 100% 30.30 in 0.2 mi NNW 4.6 mph - N/A   Overcast
12:55 AM 48.2 °F - 48.2 °F 100% 30.30 in 0.2 mi North 3.5 mph - N/A   Overcast
1:15 AM 48.2 °F - 48.2 °F 100% 30.29 in 0.2 mi Calm Calm - N/A   Overcast
1:35 AM 48.2 °F - 48.2 °F 100% 30.29 in 0.2 mi Calm Calm - N/A   Overcast
1:55 AM 46.4 °F 44.3 °F 46.4 °F 100% 30.29 in 0.2 mi NNW 4.6 mph - N/A   Overcast
2:15 AM 46.4 °F - 46.4 °F 100% 30.29 in 0.2 mi Calm Calm - N/A   Overcast
2:35 AM 46.4 °F - 46.4 °F 100% 30.29 in 0.2 mi Calm Calm - N/A   Overcast
2:55 AM 46.4 °F - 46.4 °F 100% 30.28 in 0.2 mi North - - N/A   Overcast
3:15 AM 46.4 °F - 46.4 °F 100% 30.28 in 0.2 mi Calm Calm - N/A   Overcast
3:35 AM 46.4 °F 45.2 °F 46.4 °F 100% 30.28 in 0.2 mi NW 3.5 mph - N/A   Overcast
3:55 AM 46.4 °F - 46.4 °F 100% 30.27 in 0.2 mi Calm Calm - N/A   Overcast
4:35 AM 46.4 °F 44.3 °F 46.4 °F 100% 30.27 in 0.2 mi North 4.6 mph - N/A   Overcast
4:55 AM 46.4 °F 43.5 °F 46.4 °F 100% 30.28 in 0.2 mi NNW 5.8 mph - N/A   Overcast
5:15 AM 46.4 °F 45.2 °F 46.4 °F 100% 30.27 in 0.2 mi NNW 3.5 mph - N/A   Overcast
5:35 AM 46.4 °F 44.3 °F 46.4 °F 100% 30.28 in 0.2 mi North 4.6 mph - N/A   Overcast
5:55 AM 46.4 °F 45.2 °F 46.4 °F 100% 30.27 in 0.2 mi NNW 3.5 mph - N/A   Overcast
6:50 AM 44.6 °F 40.7 °F 44.6 °F 100% 30.28 in 0.2 mi NW 6.9 mph - N/A Fog Fog
7:50 AM 46.4 °F 45.2 °F 46.4 °F 100% 30.29 in 0.2 mi Variable 3.5 mph - N/A Fog Fog
8:45 AM 46.4 °F 45.2 °F 46.4 °F 100% 30.30 in 0.2 mi Variable 3.5 mph - N/A Fog Fog
9:45 AM 46.4 °F 45.2 °F 46.4 °F 100% 30.31 in 0.8 mi Variable 3.5 mph - N/A   Overcast
10:45 AM 48.2 °F - 48.2 °F 100% 30.31 in 2.0 mi Variable 3.5 mph - N/A   Overcast
11:46 AM 48.2 °F - 48.2 °F 100% 30.29 in 2.0 mi Calm Calm - N/A   Overcast
12:47 PM 50.0 °F - 50.0 °F 100% 30.28 in 3.0 mi Calm Calm - N/A   Overcast
1:48 PM 51.8 °F - 51.8 °F 100% 30.25 in 4.0 mi Calm Calm - N/A   Overcast
2:46 PM 51.8 °F - 51.8 °F 100% 30.24 in 5.0 mi Calm Calm - N/A   Overcast
3:50 PM 51.8 °F - 51.8 °F 100% 30.23 in 6.0 mi WNW 3.5 mph - N/A   Haze
4:55 PM 48.2 °F - 48.2 °F 100% 30.23 in 6.0 mi NNW 4.6 mph - N/A   Haze
6:55 PM 44.6 °F - 44.6 °F 100% 30.23 in 7.0 mi Calm Calm - N/A   Mostly Cloudy
7:55 PM 41.0 °F 39.0 °F 41.0 °F 100% 30.22 in 7.0 mi SSE 3.5 mph - N/A   Clear
8:15 PM 39.2 °F 35.0 °F 39.2 °F 100% 30.23 in 0.2 mi South 5.8 mph - N/A   Overcast
8:35 PM 39.2 °F 37.0 °F 39.2 °F 100% 30.23 in 0.2 mi SSE 3.5 mph - N/A   Overcast
8:55 PM 39.2 °F 37.0 °F 39.2 °F 100% 30.24 in 0.2 mi SE 3.5 mph - N/A   Overcast
9:15 PM 41.0 °F 37.1 °F 41.0 °F 100% 30.24 in 0.2 mi East 5.8 mph - N/A   Overcast
9:35 PM 42.8 °F 39.3 °F 42.8 °F 100% 30.24 in 0.2 mi ESE 5.8 mph - N/A   Overcast
9:55 PM 42.8 °F 39.3 °F 42.8 °F 100% 30.24 in 0.2 mi ESE 5.8 mph - N/A   Overcast
10:15 PM 44.6 °F 43.1 °F 44.6 °F 100% 30.24 in 0.2 mi SSE 3.5 mph - N/A   Overcast
10:35 PM 44.6 °F 43.1 °F 44.6 °F 100% 30.24 in 0.2 mi SE 3.5 mph - N/A   Overcast
10:55 PM 44.6 °F 42.2 °F 44.6 °F 100% 30.24 in 0.2 mi ESE 4.6 mph - N/A   Overcast
11:15 PM 46.4 °F 44.3 °F 46.4 °F 100% 30.24 in 0.2 mi SE 4.6 mph - N/A   Overcast
11:35 PM 46.4 °F 43.5 °F 46.4 °F 100% 30.24 in 0.2 mi SE 5.8 mph - N/A   Overcast
11:55 PM 46.4 °F 42.9 °F 46.4 °F 100% 30.24 in 0.2 mi South 6.9 mph - N/A   Overcast